| Date | Time | Temp. (oF) | Dew Point (oF) | Rel. Hum. (%) | Press. (in.) | Wind Dir. | Wind Speed (mph) | Hourly Rainfall (in.) |
|
|---|---|---|---|---|---|---|---|---|---|
| 1 | 12/25 | 00:00 | 57 | 53 | 87 | 30.04 | NNE | 0 | 0.00 |
| 2 | 12/24 | 23:00 | 58 | 54 | 87 | 30.04 | ENE | 0 | 0.00 |
| 3 | 12/24 | 22:00 | 58 | 54 | 87 | 30.05 | NE | 0 | 0.00 |
| 4 | 12/24 | 21:00 | 57 | 52 | 86 | 30.04 | N | 0 | 0.00 |
| 5 | 12/24 | 20:00 | 57 | 52 | 85 | 30.03 | WSW | 0 | 0.00 |
| 6 | 12/24 | 19:00 | 59 | 54 | 84 | 30.01 | ENE | 0 | 0.00 |
| 7 | 12/24 | 18:00 | 62 | 55 | 80 | 30.00 | E | 0 | 0.00 |
| 8 | 12/24 | 17:00 | 64 | 55 | 75 | 29.98 | SW | 0 | 0.00 |
| 9 | 12/24 | 16:00 | 67 | 57 | 71 | 29.96 | W | 0 | 0.00 |
| 10 | 12/24 | 15:00 | 68 | 57 | 69 | 29.94 | WNW | 4 | 0.00 |
| 11 | 12/24 | 14:00 | 69 | 60 | 74 | 29.91 | WSW | 5 | 0.00 |
| 12 | 12/24 | 13:00 | 69 | 62 | 79 | 29.91 | SSW | 7 | 0.00 |
| 13 | 12/24 | 12:00 | 68 | 61 | 81 | 29.91 | SW | 5 | 0.00 |
| 14 | 12/24 | 11:00 | 68 | 62 | 82 | 29.90 | SSW | 12 | 0.00 |
| 15 | 12/24 | 10:00 | 67 | 61 | 83 | 29.88 | SSW | 12 | 0.00 |
| 16 | 12/24 | 09:00 | 66 | 61 | 84 | 29.85 | SSW | 12 | 0.00 |
| 17 | 12/24 | 08:00 | 65 | 59 | 83 | 29.83 | SSW | 10 | 0.00 |
| 18 | 12/24 | 07:00 | 65 | 59 | 82 | 29.81 | WSW | 4 | 0.01 |
| 19 | 12/24 | 06:00 | 65 | 59 | 82 | 29.81 | SSW | 4 | 0.00 |
| 20 | 12/24 | 05:00 | 65 | 59 | 82 | 29.76 | SSW | 9 | 0.00 |
| 21 | 12/24 | 04:00 | 65 | 59 | 82 | 29.74 | SSW | 8 | 0.00 |
| 22 | 12/24 | 03:00 | 65 | 60 | 84 | 29.73 | SSW | 10 | 0.00 |
| 23 | 12/24 | 02:00 | 65 | 60 | 86 | 29.73 | SW | 3 | 0.00 |
| 24 | 12/24 | 01:00 | 65 | 60 | 86 | 29.73 | SSW | 6 | 0.00 |